EA3KZ-1 Weather Reports


time (UTC)temp
F
wind
direction
speed
knots
gust
knots
rain 1hr
in
rain 24hr
in
rain mn
in
humidity
%
barometer
mb
20260831230536 74 138 0.9 3.5 0.00 0.00 0.00 86 1017.6
20260831225533 73 357 1.7 5.2 0.00 0.00 0.00 87 1017.7
20260831224530 74 28 2.6 5.2 0.00 0.00 0.00 86 1017.8
20260831223528 74 3 0.9 3.5 0.00 0.00 0.00 86 1017.7
20260831222525 74 158 0.9 3.5 0.00 0.00 0.00 86 1017.7
20260831221523 74 36 0.9 3.5 0.00 0.00 0.00 86 1017.7
20260831220520 74 145 0.9 3.5 0.00 0.00 0.00 85 1017.8
20260831215517 74 27 1.7 5.2 0.00 0.00 0.00 85 1017.7
20260831214515 74 85 0.9 3.5 0.00 0.00 0.00 84 1017.5
20260831213612 74 102 1.7 7.0 0.00 0.00 0.00 84 1017.5
20260831212610 74 117 1.7 3.5 0.00 0.00 0.00 84 1017.5
20260831211607 74 107 2.6 6.1 0.00 0.00 0.00 84 1017.4
20260831210605 75 116 0.9 3.5 0.00 0.00 0.00 82 1017.3
20260831205602 75 82 0.9 3.5 0.00 0.00 0.00 81 1017.4
20260831204559 75 146 0.9 5.2 0.00 0.00 0.00 80 1017.2
20260831203557 75 42 1.7 5.2 0.00 0.00 0.00 79 1017.3
20260831202554 75 169 2.6 7.0 0.00 0.00 0.00 77 1017.0
20260831201552 76 309 0.9 3.5 0.00 0.00 0.00 76 1017.1
20260831200549 76 80 1.7 6.1 0.00 0.00 0.00 76 1017.0
20260831195546 76 120 0.9 3.5 0.00 0.00 0.00 74 1016.9
20260831194544 76 128 1.7 3.5 0.00 0.00 0.00 75 1016.6
20260831193541 76 104 1.7 6.1 0.00 0.00 0.00 75 1016.5
20260831192539 76 112 2.6 7.0 0.00 0.00 0.00 74 1016.5
20260831191536 76 68 2.6 6.1 0.00 0.00 0.00 73 1016.0
20260831190534 76 114 3.5 7.8 0.00 0.00 0.00 73 1015.9
20260831185531 76 103 3.5 7.0 0.00 0.00 0.00 72 1016.0
20260831184528 77 103 1.7 7.0 0.00 0.00 0.00 71 1015.8
20260831183526 77 108 3.5 7.8 0.00 0.00 0.00 72 1015.7
20260831182523 77 173 1.7 5.2 0.00 0.00 0.00 71 1015.6
20260831181520 77 77 2.6 7.0 0.00 0.00 0.00 70 1015.5
20260831180518 78 116 2.6 7.0 0.00 0.00 0.00 70 1015.6
20260831175515 78 155 0.9 3.5 0.00 0.00 0.00 70 1015.5
20260831174613 78 91 4.3 11.3 0.00 0.00 0.00 71 1015.4
20260831173610 78 80 2.6 7.0 0.00 0.00 0.00 71 1015.5
20260831172608 79 115 2.6 9.6 0.00 0.00 0.00 71 1015.5
20260831171605 79 99 2.6 6.1 0.00 0.00 0.00 71 1015.4
20260831170602 79 41 2.6 7.8 0.00 0.00 0.00 72 1015.5
20260831165600 79 162 2.6 9.6 0.00 0.00 0.00 71 1015.5
20260831164557 80 142 3.5 9.6 0.00 0.00 0.00 71 1015.4
20260831163555 81 102 3.5 7.0 0.00 0.00 0.00 69 1015.5
20260831162552 81 147 1.7 7.8 0.00 0.00 0.00 70 1015.6
20260831161550 80 98 5.2 9.6 0.00 0.00 0.00 70 1015.6
20260831160547 80 135 4.3 11.3 0.00 0.00 0.00 70 1015.6
20260831155545 81 99 3.5 12.2 0.00 0.00 0.00 68 1015.7
20260831154542 81 80 3.5 11.3 0.00 0.00 0.00 67 1015.8
20260831153540 82 109 4.3 9.6 0.00 0.00 0.00 66 1015.6
20260831152537 83 119 2.6 13.0 0.00 0.00 0.00 65 1015.7
20260831151534 83 107 4.3 11.3 0.00 0.00 0.00 64 1015.6
20260831150532 84 101 3.5 9.6 0.00 0.00 0.00 64 1015.5
20260831145529 84 96 4.3 9.6 0.00 0.00 0.00 63 1015.5
20260831144527 84 138 4.3 11.3 0.00 0.00 0.00 63 1015.5
20260831143524 86 227 2.6 9.6 0.00 0.00 0.00 61 1015.4
20260831142521 86 144 2.6 7.8 0.00 0.00 0.00 61 1015.6
20260831141519 85 116 3.5 7.8 0.00 0.00 0.00 61 1015.5
20260831140516 86 161 2.6 7.0 0.00 0.00 0.00 60 1015.5
20260831135614 86 135 3.5 9.6 0.00 0.00 0.00 60 1015.4
20260831134611 85 171 3.5 9.6 0.00 0.00 0.00 61 1015.4
20260831133609 85 95 2.6 7.0 0.00 0.00 0.00 60 1015.4
20260831132606 84 113 2.6 6.1 0.00 0.00 0.00 61 1015.5
20260831131604 83 106 4.3 13.0 0.00 0.00 0.00 64 1015.5
20260831130601 83 339 6.1 9.6 0.00 0.00 0.00 63 1015.6
20260831125558 83 61 3.5 9.6 0.00 0.00 0.00 63 1015.5
20260831124556 83 22 6.1 12.2 0.00 0.00 0.00 62 1015.7
20260831123553 83 358 2.6 6.1 0.00 0.00 0.00 61 1015.7
20260831122551 84 91 3.5 7.8 0.00 0.00 0.00 60 1015.8
20260831121548 86 76 2.6 7.0 0.00 0.00 0.00 58 1015.8
20260831120545 85 163 2.6 5.2 0.00 0.00 0.00 59 1015.8
20260831115543 85 107 2.6 6.1 0.00 0.00 0.00 57 1015.9
20260831114540 85 105 1.7 7.8 0.00 0.00 0.00 55 1015.9
20260831113538 85 84 1.7 5.2 0.00 0.00 0.00 56 1015.9
20260831112535 85 107 3.5 6.1 0.00 0.00 0.00 55 1016.0
20260831111532 84 90 2.6 3.5 0.00 0.00 0.00 56 1016.1
20260831110530 84 102 1.7 3.5 0.00 0.00 0.00 56 1016.1
20260831105527 83 104 2.6 7.8 0.00 0.00 0.00 56 1016.2
20260831104525 83 134 1.7 5.2 0.00 0.00 0.00 60 1016.2
20260831103522 82 137 2.6 7.0 0.00 0.00 0.00 61 1016.2
20260831102519 80 293 2.6 3.5 0.00 0.00 0.00 63 1016.2
20260831101517 82 90 2.6 5.2 0.00 0.00 0.00 60 1016.3
20260831100614 82 128 0.0 1.7 0.00 0.00 0.00 61 1016.3
20260831095612 81 135 0.9 3.5 0.00 0.00 0.00 64 1016.2
20260831094609 80 116 1.7 5.2 0.00 0.00 0.00 65 1016.4
20260831093607 80 216 0.9 1.7 0.00 0.00 0.00 65 1016.4
20260831092604 79 125 2.6 6.1 0.00 0.00 0.00 67 1016.4
20260831091602 78 209 2.6 6.1 0.00 0.00 0.00 71 1016.3
20260831090559 78 146 0.9 3.5 0.00 0.00 0.00 70 1016.5
20260831085556 76 193 1.7 3.5 0.00 0.00 0.00 74 1016.3
20260831084554 76 141 3.5 6.1 0.00 0.00 0.00 75 1016.3
20260831083551 75 153 4.3 7.8 0.00 0.00 0.00 77 1016.2
20260831082548 77 122 1.7 5.2 0.00 0.00 0.00 74 1016.1
20260831081546 77 114 0.9 3.5 0.00 0.00 0.00 75 1016.0
20260831080543 77 93 0.9 3.5 0.00 0.00 0.00 73 1016.0
20260831075540 76 110 0.9 3.5 0.00 0.00 0.00 72 1015.9
20260831074538 75 212 1.7 3.5 0.00 0.00 0.00 72 1015.7
20260831073535 75 98 0.9 3.5 0.00 0.00 0.00 72 1015.6
20260831072533 74 140 0.9 1.7 0.00 0.00 0.00 71 1015.5
20260831071530 74 97 0.9 1.7 0.00 0.00 0.00 70 1015.5
20260831070527 73 90 0.9 1.7 0.00 0.00 0.00 70 1015.4
20260831065525 74 94 0.9 1.7 0.00 0.00 0.00 69 1015.3
20260831064522 73 113 0.0 1.7 0.00 0.00 0.00 69 1015.3
20260831063520 74 158 0.0 1.7 0.00 0.00 0.00 68 1015.0
20260831062517 73 248 0.0 1.7 0.00 0.00 0.00 63 1014.8
20260831061614 73 248 0.0 1.7 0.00 0.00 0.00 61 1014.8
20260831060612 71 248 0.0 1.7 0.00 0.00 0.00 59 1014.7
20260831055610 71 0.0 1.7 0.00 0.00 0.00 57 1014.5
20260831054607 70 264 0.9 1.7 0.00 0.00 0.00 57 1014.4
20260831053604 70 236 0.0 1.7 0.00 0.00 0.00 56 1014.4
20260831052602 69 258 0.9 1.7 0.00 0.00 0.00 57 1014.1
20260831051559 69 268 1.7 1.7 0.00 0.00 0.00 55 1014.1
20260831050556 70 270 0.0 1.7 0.00 0.00 0.00 54 1014.2
20260831045554 70 248 0.9 1.7 0.00 0.00 0.00 54 1014.1
20260831044551 69 259 1.7 3.5 0.00 0.00 0.00 54 1014.2
20260831043549 69 259 0.0 1.7 0.00 0.00 0.00 54 1014.1
20260831042546 70 257 0.9 1.7 0.00 0.00 0.00 54 1014.2
20260831041543 70 236 0.9 1.7 0.00 0.00 0.00 53 1014.2
20260831040541 70 0.0 0.0 0.00 0.00 0.00 53 1014.0
20260831035538 70 248 0.0 1.7 0.00 0.00 0.00 53 1014.0
20260831034535 70 260 1.7 3.5 0.00 0.00 0.00 53 1014.1
20260831033533 70 265 1.7 3.5 0.00 0.00 0.00 53 1014.0
20260831032530 70 0.0 0.0 0.00 0.00 0.00 53 1014.2
20260831031528 70 0.0 0.0 0.00 0.00 0.00 52 1014.1
20260831030525 70 0.0 1.7 0.00 0.00 0.00 52 1014.1
20260831025523 70 261 1.7 3.5 0.00 0.00 0.00 52 1014.0
20260831024520 70 252 1.7 1.7 0.00 0.00 0.00 52 1014.0
20260831023518 70 231 0.9 1.7 0.00 0.00 0.00 53 1014.1
20260831022515 70 248 0.0 1.7 0.00 0.00 0.00 53 1014.0
20260831021612 70 255 1.7 3.5 0.00 0.00 0.00 53 1013.9
20260831020610 70 252 0.9 1.7 0.00 0.00 0.00 53 1014.0
20260831015607 70 251 1.7 3.5 0.00 0.00 0.00 53 1014.1
20260831014605 70 216 0.9 1.7 0.00 0.00 0.00 54 1014.1
20260831013602 71 45 0.9 3.5 0.00 0.00 0.00 50 1013.9
20260831012600 71 0.0 0.0 0.00 0.00 0.00 52 1013.8
20260831011557 71 289 0.9 3.5 0.00 0.00 0.00 52 1013.8
20260831010554 71 270 0.0 1.7 0.00 0.00 0.00 53 1013.8
20260831005552 71 257 0.9 1.7 0.00 0.00 0.00 53 1013.9
20260831004549 71 244 1.7 1.7 0.00 0.00 0.00 53 1013.9
20260831003547 71 242 0.0 1.7 0.00 0.00 0.00 52 1013.8
20260831002544 71 167 0.0 1.7 0.00 0.00 0.00 53 1013.8
20260831001541 71 240 0.9 1.7 0.00 0.00 0.00 57 1013.7
20260831000539 71 0.0 0.0 0.00 0.00 0.00 59 1013.7
20260830235536 71 281 0.9 1.7 0.00 0.00 0.00 58 1013.8
20260830234534 71 135 0.9 1.7 0.00 0.00 0.00 58 1013.8
20260830233531 71 0.0 0.0 0.00 0.00 0.00 62 1014.1
20260830232528 72 237 1.7 3.5 0.00 0.00 0.00 61 1014.1
20260830231526 71 240 0.9 1.7 0.00 0.00 0.00 63 1014.0